Location: Devore Heights
(34.2372°N, 117.4156°W)
Time: 07:29:51
(UTC+00:00)

Vanguard 2 - Visible Passes

Search period start: 19 September 2024 00:00
Search period end: 29 September 2024 00:00
Orbit: 552 x 2911 km, 32.9° (Epoch: 18 September)

Date Brightness Start Highest point End Pass type
(mag) Time Alt. Az. Time Alt. Az. Time Alt. Az.
19 Sep 7.4 11:43:15 62° WSW 11:44:09 79° S 11:51:22 10° E visible
20 Sep 7.6 11:56:33 47° W 11:58:06 78° S 12:05:25 10° E visible
21 Sep 10.3 10:08:45 12° E 10:08:45 12° E 10:09:06 10° E visible
21 Sep 7.7 12:09:51 35° W 12:12:02 72° S 12:19:27 10° ESE visible
22 Sep 10.0 10:22:05 15° E 10:22:05 15° E 10:23:06 10° E visible
22 Sep 7.9 12:23:11 27° W 12:25:58 63° S 12:33:23 10° ESE visible
23 Sep 9.7 10:35:25 19° E 10:35:25 19° E 10:37:06 10° E visible
23 Sep 8.1 12:36:31 20° W 12:39:53 52° SSW 12:47:13 10° ESE visible
24 Sep 9.4 10:48:47 23° ESE 10:48:47 23° ESE 10:51:05 10° E visible
24 Sep 8.5 12:49:54 15° W 12:53:48 42° SSW 13:00:52 10° SE visible
25 Sep 9.0 11:02:11 28° ESE 11:02:11 28° ESE 11:05:02 10° ESE visible
25 Sep 8.9 13:03:18 10° W 13:07:44 32° SSW 13:14:19 10° SE visible
26 Sep 8.7 11:15:36 32° SE 11:15:36 32° SE 11:18:54 10° ESE visible
27 Sep 8.5 11:29:03 32° SSE 11:29:03 32° SSE 11:32:38 10° SE visible
28 Sep 8.6 11:42:31 29° S 11:42:31 29° S 11:46:12 10° SE visible
